CAPE
2429 2386 2335 2300 2209 2219 2093 1992 1928 1853 1782 1717 1770 1764 1862 1927 1789 1714 1669 1621 1582 1636 1817 1927 1999 1951 1869 1742 1611 1483 1338 1323 1260 1283 1288 1256 1248 1227 1152 1191 1231 1186 1012 938 866 728 654 594 568 549 607 648 670 620 550 521 617 697 767 742 698 673 594 516 589 543 441 392 247 10 1 6 12 18 2 27 148 299 354 336 293 227 161 68 135
2235 2245 2195 2222 2154 2043 1958 1762 1879 1855 1841 1895 1901 1966 2116 2106 1943 1937 1972 1837 1825 1884 2037 2026 1970 1894 1675 1606 1544 1387 1379 1218 1131 1151 1146 1028 1044 1052 1121 1153 1166 1040 912 767 658 583 540 477 466 462 452 513 523 570 615 636 652 656 612 570 625 677 736 696 593 514 463 430 350 258 204 4 27 22 12 7 65 130 161 166 197 202 162 84 103
2147 2144 2034 2071 1940 1839 1748 1843 1948 1940 1849 1922 1903 1987 2002 2081 2122 2134 2135 2072 2126 2145 2132 2047 1957 1709 1600 1520 1426 1349 1204 1153 1025 1082 1014 963 889 841 948 985 880 739 642 585 557 551 553 490 503 486 457 400 380 380 386 391 444 531 620 624 595 585 630 621 587 441 410 276 304 328 299 226 134 56 62 50 63 125 116 86 92 104 128 133 130
2043 2034 1930 1844 1787 1724 1812 1911 1935 1822 1996 1942 1866 2019 2092 2104 2004 2160 2131 2112 2122 2142 1994 1834 1732 1674 1608 1479 1245 908 1022 989 1032 910 813 713 667 544 589 608 592 570 554 534 500 512 510 525 530 537 523 473 442 399 367 463 560 581 579 577 548 577 570 599 636 622 550 369 319 349 346 243 175 17 33 54 62 72 85 72 94 116 176 181 193
1978 1730 1670 1691 1748 1811 1904 1778 1913 1986 2073 1899 1798 1925 2003 2016 1944 1903 1902 1879 1888 1845 1768 1744 1654 1554 1406 995 913 927 1041 979 752 670 619 524 566 452 406 409 357 381 392 406 406 412 407 403 436 466 501 521 487 457 404 490 544 660 685 662 660 644 652 659 639 644 624 503 374 288 258 218 176 13 0 10 12 34 69 110 90 114 168 183 179
1838 1556 1568 1642 1662 1735 1756 1820 1883 1940 2011 1911 1916 1961 1956 1986 1947 1888 1858 1838 1801 1712 1692 1672 1271 1061 976 1059 1113 1250 1218 1013 812 719 684 628 514 429 308 259 196 13 4 0 0 20 3 0 0 0 4 340 392 412 402 360 379 414 573 656 707 740 709 682 534 564 649 673 625 295 279 382 263 210 52 48 17 48 111 136 153 97 137 165 174
1658 1454 1610 1573 1757 1700 1698 1699 1693 1721 1850 1826 1905 1940 1963 1972 1751 1581 1642 1641 1606 1513 1365 1100 1186 1308 1287 1288 1266 1199 1044 986 834 769 668 566 473 422 289 81 0 0 0 0 0 1 0 0 37 48 72 90 129 164 196 210 258 305 380 444 506 578 614 648 671 653 672 750 736 621 506 377 267 114 92 69 30 52 67 146 151 121 99 136 160
1572 1554 1592 1544 1593 1546 1651 1683 1836 1795 1576 1426 1613 1818 1838 1745 1567 1471 1436 1394 1350 1310 1322 1456 1405 1351 1317 1178 1021 835 653 639 608 565 546 523 491 420 208 0 0 0 0 0 0 0 7 4 5 17 44 69 87 138 188 237 254 274 326 399 500 510 580 560 611 756 778 738 660 633 679 508 397 264 93 94 99 46 58 122 164 157 91 94 113
1514 1645 1533 1369 1334 1486 1594 1680 1822 1643 1290 1154 1267 1307 1350 1514 1573 1516 1492 1476 1496 1482 1558 1551 1299 1163 994 799 729 647 564 557 525 530 519 488 425 286 0 0 0 0 0 0 1 2 4 4 4 4 9 16 59 95 161 224 247 264 300 343 379 445 505 508 467 509 505 586 763 778 694 545 539 380 118 32 31 60 61 24 54 116 117 110 120
1530 1681 1462 1347 1249 1387 1603 1727 1603 1410 1234 1215 1052 1040 1273 1484 1570 1574 1561 1572 1543 1575 1471 1297 1146 1023 859 747 682 605 555 531 500 470 429 388 284 0 0 0 0 0 1 2 3 4 5 6 5 7 6 16 44 48 85 139 186 220 273 306 354 371 440 452 440 406 413 474 489 585 725 682 690 671 430 247 167 29 88 220 157 155 69 111 120
1545 1532 1226 1102 1152 1368 1536 1659 1248 1149 1210 1208 1054 1065 1217 1424 1539 1545 1533 1509 1461 1353 1179 1071 1015 908 747 662 592 504 465 460 438 420 389 296 0 0 0 0 2 3 4 5 8 10 21 23 18 21 29 41 64 61 79 103 137 164 221 274 290 302 333 331 328 349 378 291 299 367 537 737 889 579 149 260 337 355 277 216 189 200 89 100 96
1504 1390 1200 1099 1315 1400 1403 1386 1033 978 1084 1042 939 1056 1190 1298 1425 1416 1412 1350 1288 1184 1049 939 846 734 594 522 456 473 424 87 354 373 304 0 34 0 1 2 3 5 7 14 15 29 30 28 32 38 52 57 67 83 100 125 157 166 181 180 164 140 161 235 277 408 422 352 314 358 319 319 518 566 387 410 398 367 422 379 294 177 95 72 89
1551 1422 1334 1374 1512 1528 1387 1161 1097 1081 1029 1031 1012 1050 1117 1220 1324 1351 1268 1184 1136 1035 913 798 683 565 508 492 603 478 406 36 20 18 0 32 130 95 1 2 4 6 18 28 29 51 45 45 56 62 66 76 81 88 118 134 150 158 153 139 95 96 109 138 178 206 303 297 316 373 346 333 354 337 246 239 224 352 396 378 368 318 204 132 88
1612 1370 1230 1351 1551 1524 1340 1153 1121 1094 1051 1038 993 1047 1123 1254 1265 1156 1134 1083 1014 942 850 724 593 553 533 639 587 500 150 0 0 0 9 1 3 3 2 6 19 33 44 49 59 62 51 48 70 79 77 61 61 51 71 105 112 136 157 155 156 154 150 156 178 265 261 303 330 310 312 288 240 158 124 125 156 113 288 308 238 182 206 152 114
1350 1214 1159 1225 1286 1293 1345 1139 1163 1192 1138 1113 1071 1041 1138 1270 1246 1177 1092 1041 967 866 767 673 593 562 707 709 615 388 4 71 20 1 2 6 5 7 8 12 16 40 58 55 65 46 26 27 54 51 36 23 14 12 28 50 82 98 103 97 112 132 163 226 320 358 396 380 379 382 350 314 247 185 122 101 92 95 90 87 87 124 217 166 86
1182 1169 1208 1295 1183 1161 1246 1276 1302 1240 1253 1226 1154 1138 1220 1255 1270 1200 1062 967 868 791 721 635 777 898 812 705 525 26 56 48 34 10 16 10 10 15 15 11 11 19 59 23 22 10 6 6 6 9 17 6 5 4 6 13 15 53 80 93 69 129 155 223 302 357 376 420 414 378 325 274 220 177 149 136 108 74 71 57 21 39 155 144 102
1145 1347 1617 1448 1400 1287 1189 1311 1292 1312 1337 1270 1152 1078 1059 1022 1044 1110 992 868 842 831 761 706 888 930 831 604 6 2 2 2 7 6 3 3 8 7 7 7 11 21 22 5 4 5 4 5 6 5 3 2 7 5 3 4 3 52 50 36 19 18 45 97 131 170 249 305 302 323 299 288 222 176 168 155 124 86 56 37 11 16 98 93 36
1382 1482 1470 1295 1315 1245 1254 1309 1265 1266 1209 1019 885 834 826 785 758 782 761 785 782 749 800 964 986 894 665 117 3 3 4 10 13 7 8 8 4 2 2 3 7 5 5 3 4 4 4 4 3 3 2 3 6 7 4 1 3 17 30 9 1 1 14 32 72 125 130 151 139 166 205 197 164 136 145 79 112 85 55 42 12 3 46 63 27
1213 1235 1346 1324 1087 1173 1110 1167 1174 1196 1137 1008 858 792 830 764 690 618 611 712 791 977 1071 1050 890 620 164 3 2 5 10 6 5 5 5 6 7 10 1 5 8 3 4 1 3 3 3 4 2 2 2 1 3 8 1 1 0 1 6 6 105 106 57 15 17 31 74 25 12 158 170 147 111 98 82 72 66 64 61 21 7 106 24 40 21
1312 1275 1174 1190 1144 1084 1025 953 1085 1146 1025 994 956 1018 1010 928 782 679 597 693 891 1010 962 769 500 102 4 5 4 2 1 0 4 7 10 6 6 2 9 6 2 2 1 2 1 1 1 0 1 1 0 0 0 0 1 2 2 0 3 33 11 31 66 8 7 0 13 26 58 60 107 72 67 67 70 44 28 48 42 46 56 57 89 85 75
1249 1148 1107 1130 1108 965 946 888 847 912 893 807 819 992 891 801 658 530 552 757 927 814 630 349 35 4 4 2 1 3 2 3 6 5 1 1 4 15 8 5 1 1 1 0 0 0 0 0 0 0 0 0 0 0 0 0 0 0 4 55 25 10 58 0 1 0 0 1 3 3 1 1 25 59 63 56 28 43 41 11 43 26 26 75 114
1287 1251 1312 1238 962 907 1042 936 893 821 844 813 794 751 594 446 428 543 644 766 735 482 300 4 4 3 4 4 5 4 5 5 3 1 0 2 10 10 8 4 4 0 2 0 0 0 0 0 1 0 0 0 0 0 0 0 0 0 2 3 2 2 2 1 6 2 3 0 62 5 1 0 1 23 36 37 17 9 4 2 19 62 56 92 125
1321 1152 1016 1052 902 765 647 645 906 714 609 556 465 391 355 391 504 573 616 556 404 244 55 1 1 2 4 4 4 5 2 0 2 4 6 10 8 7 6 4 2 2 2 1 1 1 0 0 0 0 0 0 0 0 0 0 1 2 2 4 4 3 2 2 2 3 4 6 4 5 3 13 2 4 21 11 15 10 6 0 34 66 63 106 108
1381 1069 934 999 910 870 962 971 874 706 683 558 406 296 280 365 506 541 458 311 195 2 3 4 3 2 1 2 1 3 6 6 6 6 8 8 6 4 2 0 0 3 2 0 0 1 0 0 0 0 0 0 0 0 0 0 1 4 5 3 4 5 5 4 3 3 18 22 5 3 48 49 38 45 45 24 20 15 2 4 19 25 37 44 61
1139 1038 972 766 688 732 788 830 700 653 542 176 65 263 288 388 448 335 257 160 25 2 2 3 3 1 2 4 6 7 8 8 8 6 6 6 4 1 0 0 1 1 0 0 0 0 0 0 0 0 0 0 0 3 3 2 2 3 3 3 3 4 5 4 4 3 10 21 30 36 58 64 51 49 59 53 38 18 22 26 23 26 23 34 32
990 739 788 637 842 813 752 567 546 431 218 266 202 229 278 384 310 238 161 0 2 5 7 6 6 4 6 7 7 6 6 6 6 5 7 2 0 0 0 0 0 0 0 0 0 0 1 0 0 0 0 0 0 3 2 4 2 2 2 2 3 2 2 2 2 2 2 3 11 27 44 66 98 108 80 65 70 55 7 18 18 14 24 37 35
1008 1075 1032 962 940 731 551 502 415 160 228 208 250 183 180 282 240 141 25 1 6 7 6 5 5 7 8 6 5 3 6 7 6 4 2 0 0 0 0 0 0 0 0 0 0 0 1 0 0 0 0 0 0 0 0 0 0 0 1 1 1 0 1 2 2 1 1 2 4 4 13 34 41 57 63 72 72 73 65 34 18 16 16 17 42
1030 992 862 538 512 596 504 492 196 264 290 346 15 11 190 224 158 34 2 8 9 9 9 9 6 6 4 4 3 7 7 6 4 1 0 0 0 0 0 0 0 0 0 0 0 0 0 0 0 0 0 0 0 0 0 0 0 0 0 0 0 0 0 0 0 0 0 0 2 4 4 8 15 19 26 44 70 70 54 46 50 45 31 38 38
919 786 430 406 627 646 614 333 282 332 273 184 20 50 191 177 16 3 9 9 9 12 8 6 4 2 2 3 6 7 4 3 0 0 0 0 0 0 0 0 0 0 0 0 0 0 0 0 0 0 0 0 0 0 0 0 0 0 0 0 0 0 0 0 0 0 0 0 1 2 2 2 4 2 6 7 15 47 64 59 61 66 64 46 37
810 673 505 457 634 621 621 489 326 326 239 215 78 189 163 74 1 6 9 7 11 7 6 4 1 1 0 1 3 4 3 1 0 0 0 0 0 0 0 0 0 0 0 0 0 0 0 0 0 0 0 0 0 0 0 0 0 0 0 0 0 0 0 0 0 0 0 0 0 0 0 0 0 0 0 0 4 19 41 53 61 69 68 58 49
858 739 646 423 599 583 557 218 230 176 183 239 140 160 93 0 3 4 6 5 10 6 5 2 0 0 1 2 2 2 1 0 0 0 0 0 0 0 0 0 0 0 0 0 0 0 0 0 0 0 0 0 0 0 0 0 0 0 0 0 0 0 0 0 0 0 0 0 0 0 0 1 1 0 0 0 0 3 21 31 21 19 41 66 78
702 608 559 529 553 488 399 353 212 162 223 280 115 38 0 0 1 2 6 9 6 4 3 1 0 0 0 1 1 0 0 0 0 0 0 0 0 0 0 0 0 0 0 0 0 0 0 0 0 0 0 0 0 0 0 0 0 0 0 0 0 0 0 0 1 0 0 0 0 0 0 0 0 1 1 0 2 2 1 3 2 2 10 21 42
602 643 563 493 407 323 347 340 136 166 39 106 41 0 0 0 0 2 7 7 5 3 2 1 0 0 0 0 0 0 0 0 0 0 0 0 0 0 0 0 0 0 0 0 0 0 0 0 0 0 0 0 0 0 0 0 0 0 0 0 0 0 0 0 0 1 0 0 0 0 0 0 0 1 1 1 1 5 3 2 1 1 0 3 12
639 572 470 410 234 251 328 290 56 54 10 0 0 0 0 0 0 2 6 4 5 4 2 1 2 0 0 0 0 0 0 0 0 0 0 0 0 0 0 0 0 0 0 0 0 0 0 0 0 0 0 0 0 0 0 0 0 0 0 0 0 0 0 0 0 0 0 0 0 0 0 0 0 0 0 0 0 2 4 2 1 2 3 2 1
595 553 399 223 221 258 214 32 35 13 1 0 0 0 0 0 1 3 6 6 6 5 1 1 1 1 1 1 0 0 0 0 0 0 0 0 0 0 0 0 0 0 0 0 0 0 0 0 0 0 0 0 0 0 0 0 0 0 0 0 0 0 0 0 0 0 0 0 0 0 0 0 0 0 0 0 0 0 1 2 1 0 0 0 0
361 315 247 233 237 186 78 7 13 5 2 1 0 0 0 0 1 3 4 6 7 5 1 0 0 1 1 0 0 0 0 0 0 0 0 0 0 0 0 0 0 0 0 0 0 0 0 0 0 0 0 0 0 0 0 0 0 0 0 0 0 0 0 0 0 0 0 0 0 0 0 0 0 0 0 0 1 1 2 1 1 1 0 0 0
395 229 198 233 173 134 45 34 20 11 5 2 0 0 0 0 0 2 5 7 5 2 2 0 0 0 0 0 0 0 0 0 0 0 0 0 0 0 0 0 0 0 0 0 0 0 0 0 0 0 0 0 0 0 0 0 0 0 0 0 0 0 0 0 0 0 0 0 0 0 0 0 0 0 0 1 0 0 0 4 10 10 7 4 1
214 182 215 180 162 111 38 40 87 38 3 0 0 0 0 0 1 2 4 4 2 1 1 0 0 0 0 0 0 0 0 0 0 0 0 0 0 0 0 0 0 0 0 0 0 0 0 0 0 0 0 0 0 0 0 0 0 0 0 0 0 0 0 0 0 0 0 0 0 0 0 0 0 0 0 0 0 1 3 5 4 1 7 11 11
178 180 148 119 60 21 60 124 106 45 1 0 0 0 0 0 2 3 4 3 1 0 0 0 0 0 0 0 0 0 0 0 0 0 0 0 0 0 0 0 0 0 0 0 0 0 0 0 0 0 0 0 0 0 0 0 0 0 0 0 0 0 0 0 0 0 0 0 0 0 0 0 0 0 0 0 0 0 1 6 2 4 0 0 0
140 144 66 38 54 41 86 119 89 44 0 0 0 0 0 2 3 2 1 0 0 0 0 0 0 0 0 0 0 0 0 0 0 0 0 0 0 0 0 0 0 0 0 0 0 0 0 0 0 0 0 0 0 0 0 0 0 0 0 0 0 0 0 0 0 0 0 0 0 0 0 0 0 0 0 0 0 0 0 0 0 0 0 0 0
145 120 40 61 78 93 76 59 53 12 0 0 0 0 5 5 2 0 0 0 0 0 0 0 0 0 0 0 0 0 0 0 0 0 0 0 0 0 0 0 0 0 0 0 0 0 0 0 0 0 0 0 0 0 0 0 0 0 0 0 0 0 0 0 0 0 0 0 0 0 0 0 0 0 0 0 0 0 0 0 0 0 0 0 0
155 112 93 90 71 92 84 54 0 0 0 0 0 0 0 1 0 0 0 0 0 0 0 0 0 0 0 0 0 0 0 0 0 0 0 0 0 0 0 0 0 0 0 0 0 0 0 0 0 0 0 0 0 0 0 0 0 0 0 0 0 0 0 0 0 0 0 0 0 0 0 0 0 0 0 0 0 0 0 0 0 0 0 0 0
66 70 95 84 47 47 50 26 7 1 0 0 0 0 0 0 0 0 0 0 0 0 0 0 0 0 0 0 0 0 0 0 0 0 0 0 0 0 0 0 0 0 0 0 0 0 0 0 0 0 0 0 0 0 0 0 0 0 0 0 0 0 0 0 0 0 0 0 0 0 0 0 0 0 0 0 0 0 0 0 0 0 0 0 0
53 74 93 69 60 46 30 3 15 0 0 0 0 0 0 0 0 0 0 0 0 0 0 0 0 0 0 0 0 0 0 0 0 0 0 0 0 0 0 0 0 0 0 0 0 0 0 0 0 0 0 0 0 0 0 0 0 0 0 0 0 0 0 0 0 0 0 0 0 0 0 0 0 0 0 0 0 0 0 0 0 0 0 0 0
19 49 73 62 76 64 12 28 55 38 0 0 0 0 0 0 0 0 0 0 0 0 0 0 0 0 0 0 0 0 0 0 0 0 0 0 0 0 0 0 0 0 0 0 0 0 0 0 0 0 0 0 0 0 0 0 0 0 0 0 0 0 0 0 0 0 0 0 0 0 0 0 0 0 0 0 0 0 0 0 0 0 0 0 0
3 11 28 29 44 57 37 68 85 40 0 0 0 0 0 0 0 0 0 0 0 0 0 0 0 0 0 0 0 0 0 0 0 0 0 0 0 0 0 0 0 0 0 0 0 0 0 0 0 0 0 0 0 0 0 0 0 0 0 0 0 0 0 0 0 0 0 0 0 0 0 0 0 0 0 0 0 0 0 0 0 0 0 0 0
0 0 20 18 10 32 62 77 41 5 0 0 0 0 0 0 0 0 0 0 0 0 0 0 0 0 0 0 0 0 0 0 0 0 0 0 0 0 0 0 0 0 0 0 0 0 0 0 0 0 0 0 0 0 0 0 0 0 0 0 0 0 0 0 0 0 0 0 0 0 0 0 0 0 0 0 0 0 0 0 0 0 0 0 0
7 28 38 20 22 32 52 23 8 0 0 0 0 0 0 0 0 0 0 0 0 0 0 0 0 0 0 0 0 0 0 0 0 0 0 0 0 0 0 0 0 0 0 0 0 0 0 0 0 0 0 0 0 0 0 0 0 0 0 0 0 0 0 0 0 0 0 0 0 0 0 0 0 0 0 0 0 0 0 0 0 0 0 0 0
8 14 13 12 10 6 6 2 0 0 0 0 0 0 0 0 0 0 0 0 0 0 0 0 0 0 0 0 0 0 0 0 0 0 0 0 0 0 0 0 0 0 0 0 0 0 0 0 0 0 0 0 0 0 0 0 0 0 0 0 0 0 0 0 0 0 0 0 0 0 0 0 0 0 0 0 0 0 0 0 0 0 0 0 0
4 3 3 1 0 0 0 0 0 0 0 0 0 0 0 0 0 0 0 0 0 0 0 0 0 0 0 0 0 0 0 0 0 0 0 0 0 0 0 0 0 0 0 0 0 0 0 0 0 0 0 0 0 0 0 0 0 0 0 0 0 0 0 0 0 0 0 0 0 0 0 0 0 0 0 0 0 0 0 0 0 0 0 0 0
2 2 1 0 0 0 0 0 0 0 0 0 0 0 0 0 0 0 0 0 0 0 0 0 0 0 0 0 0 0 0 0 0 0 0 0 0 0 0 0 0 0 0 0 0 0 0 0 0 0 0 0 0 0 0 0 0 0 0 0 0 0 0 0 0 0 0 0 0 0 0 0 0 0 0 0 0 0 0 0 0 0 0 0 0
Wind_Speed
20 20 19 18 18 17 18 19 18 17 16 19 20 19 18 16 16 16 16 18 19 17 16 16 17 16 16 15 12 13 14 15 15 16 19 19 19 19 19 18 18 18 19 20 20 20 20 20 20 20 21 21 22 23 25 25 26 27 27 29 28 29 31 34 33 34 32 30 28 nan nan nan nan nan nan nan 25 24 25 23 21 22 25 nan 26
21 19 16 16 16 17 17 17 16 15 16 18 18 17 16 16 16 15 13 15 16 15 15 16 16 14 15 13 14 14 14 15 16 19 20 20 20 18 17 17 17 18 18 20 20 21 20 20 21 21 22 22 23 24 25 27 28 29 30 29 33 30 30 35 35 37 34 33 32 29 26 nan nan nan nan nan nan 25 24 23 22 21 23 nan 27
18 15 14 15 17 17 16 15 14 15 17 17 15 15 14 15 16 13 12 15 15 15 15 15 14 14 15 14 16 14 15 16 18 18 21 21 19 17 16 17 17 17 18 19 20 20 21 21 22 23 23 23 22 23 25 27 30 32 34 33 32 36 34 37 39 41 34 35 33 31 29 29 27 nan nan nan nan 23 24 nan nan 22 22 27 29
13 12 13 15 16 16 15 15 14 15 16 16 15 15 13 14 13 11 12 14 13 12 13 13 14 15 16 16 16 17 15 16 18 19 21 21 19 18 16 16 18 18 19 20 20 20 21 22 23 24 24 25 25 25 26 28 31 33 35 37 38 36 38 37 40 40 38 40 35 34 31 31 26 nan nan nan nan nan nan nan nan 22 23 26 30
11 11 11 13 15 15 14 14 15 16 16 14 14 14 11 11 10 10 12 14 15 16 16 17 18 18 17 17 17 16 16 17 19 19 21 20 21 18 17 18 18 18 20 20 20 20 21 23 24 25 26 27 28 27 27 28 30 32 35 38 40 40 39 39 39 39 38 39 36 36 33 29 26 nan nan nan nan nan nan 23 nan 24 25 26 27
11 8 8 11 14 15 16 16 17 17 16 13 13 11 9 8 11 16 19 20 21 19 17 18 17 18 17 17 17 17 17 18 20 19 18 19 18 17 16 18 18 nan nan nan nan nan nan nan nan nan nan 27 29 29 30 30 30 32 35 38 40 42 42 39 35 38 37 37 34 33 33 28 30 30 nan nan nan nan 25 23 22 nan 27 27 27
10 7 7 10 12 15 17 18 18 17 15 13 14 13 11 10 12 16 19 22 22 20 18 19 19 18 19 20 20 21 20 19 20 21 20 17 17 19 17 nan nan nan nan nan nan nan nan nan nan nan nan nan 28 30 32 32 32 34 37 40 39 40 40 39 37 34 35 34 32 31 30 28 30 31 nan nan nan nan nan 24 22 23 nan 27 27
8 5 8 9 10 12 14 16 17 17 16 16 16 15 14 14 15 17 20 23 21 19 19 18 20 20 22 22 22 22 23 23 21 21 21 19 19 18 17 nan nan nan nan nan nan nan nan nan nan nan nan nan nan 28 29 31 34 36 38 39 38 36 35 35 32 31 33 32 33 31 30 27 25 25 nan nan nan nan nan 26 23 22 nan nan 28
5 4 7 7 6 8 10 13 16 17 18 18 17 16 16 17 18 19 22 22 21 20 21 21 22 23 23 22 23 21 23 23 22 22 22 19 19 16 nan nan nan nan nan nan nan nan nan nan nan nan nan nan nan nan 28 31 33 35 38 38 35 32 33 32 31 28 27 27 28 32 29 27 26 28 27 nan nan nan nan nan nan 24 24 24 26
3 3 5 7 7 9 11 14 17 18 18 18 18 18 18 17 19 22 22 20 20 22 23 24 24 24 24 23 23 22 22 23 24 23 21 19 19 nan nan nan nan nan nan nan nan nan nan nan nan nan nan nan nan nan nan 30 33 36 38 36 33 32 33 31 29 27 26 26 25 27 27 26 26 29 27 26 26 nan nan 24 24 26 nan 23 24
2 4 7 8 11 14 13 15 17 19 20 20 19 18 17 19 20 23 21 21 22 21 23 25 25 24 24 23 24 24 23 24 23 22 21 20 nan nan nan nan nan nan nan nan nan nan nan nan nan nan nan nan nan nan nan 32 34 36 37 34 30 30 33 31 29 25 24 23 22 26 24 23 23 23 25 26 27 27 26 22 23 25 nan nan nan
5 8 10 12 15 16 16 17 18 19 20 21 18 17 18 18 21 24 23 23 21 20 24 25 26 25 24 23 24 24 25 nan 24 23 22 nan nan nan nan nan nan nan nan nan nan nan nan nan nan nan nan nan nan nan nan 32 34 36 36 33 30 30 30 29 26 24 21 18 17 21 23 22 22 23 26 26 24 22 24 21 22 25 nan nan nan
8 10 11 12 14 16 18 19 20 19 20 20 18 18 18 19 21 25 23 22 21 21 25 25 26 25 24 24 23 23 25 nan nan nan nan nan 21 nan nan nan nan nan nan nan nan nan nan nan nan nan nan nan nan nan 28 30 32 34 34 31 nan nan 30 28 24 22 17 14 12 15 17 17 18 21 24 23 22 21 22 19 21 25 22 22 nan
11 11 11 12 14 16 16 17 17 18 19 21 20 20 20 21 21 24 22 19 20 23 24 26 26 25 24 24 24 24 25 nan nan nan nan nan nan nan nan nan nan nan nan nan nan nan nan nan nan nan nan nan nan nan nan 28 30 32 33 30 28 28 28 25 22 20 17 13 11 9 12 14 16 19 19 20 21 22 22 20 20 23 23 21 29
13 11 13 15 16 18 16 14 15 16 17 20 20 20 21 21 21 22 21 20 22 23 25 26 25 25 25 24 24 25 nan nan nan nan nan nan nan nan nan nan nan nan nan nan nan nan nan nan nan nan nan nan nan nan nan nan nan nan 32 nan 29 27 26 26 23 19 16 12 10 9 10 12 14 16 18 18 nan nan nan nan nan 21 24 24 nan
14 13 17 19 19 19 17 15 15 16 16 17 18 18 20 20 21 20 21 21 24 25 25 25 25 25 25 25 24 nan nan nan nan nan nan nan nan nan nan nan nan nan nan nan nan nan nan nan nan nan nan nan nan nan nan nan nan nan nan nan nan 25 20 18 19 17 13 10 8 9 9 11 13 14 16 18 18 nan nan nan nan nan 22 23 24
16 14 19 22 20 20 19 16 16 16 15 15 16 17 17 18 19 21 22 23 25 25 24 24 25 27 26 26 nan nan nan nan nan nan nan nan nan nan nan nan nan nan nan nan nan nan nan nan nan nan nan nan nan nan nan nan nan nan nan nan nan nan nan nan 16 14 11 8 6 6 8 9 11 12 14 17 17 nan nan nan nan nan nan nan nan
21 18 20 23 21 22 21 17 15 15 15 15 17 17 17 16 18 22 23 25 24 25 25 24 27 28 27 27 nan nan nan nan nan nan nan nan nan nan nan nan nan nan nan nan nan nan nan nan nan nan nan nan nan nan nan nan nan nan nan nan nan nan nan nan nan 13 9 7 6 7 8 9 11 11 13 nan 16 nan nan nan nan nan nan nan nan
22 21 20 23 23 20 22 20 16 15 16 17 18 21 20 19 21 23 25 24 25 25 25 27 28 28 27 nan nan nan nan nan nan nan nan nan nan nan nan nan nan nan nan nan nan nan nan nan nan nan nan nan nan nan nan nan nan nan nan nan 26 25 nan nan nan nan nan nan nan 7 8 9 10 nan nan nan nan nan nan nan nan 19 nan nan nan
23 23 23 25 26 22 19 18 16 15 16 19 22 23 24 23 25 26 26 26 27 27 27 29 28 28 nan nan nan nan nan nan nan nan nan nan nan nan nan nan nan nan nan nan nan nan nan nan nan nan nan nan nan nan nan nan nan nan nan nan nan nan nan nan nan nan nan nan nan nan 10 nan nan nan nan nan nan nan nan nan nan nan nan nan nan
24 24 26 27 26 22 20 20 18 17 17 20 22 23 23 24 26 26 27 27 28 26 27 29 nan nan nan nan nan nan nan nan nan nan nan nan nan nan nan nan nan nan nan nan nan nan nan nan nan nan nan nan nan nan nan nan nan nan nan nan nan nan nan nan nan nan nan nan nan nan nan nan nan nan nan nan nan nan nan nan nan nan nan nan 23
26 23 26 29 27 25 23 22 21 22 23 23 21 22 24 27 28 28 27 25 28 27 28 nan nan nan nan nan nan nan nan nan nan nan nan nan nan nan nan nan nan nan nan nan nan nan nan nan nan nan nan nan nan nan nan nan nan nan nan nan nan nan nan nan nan nan nan nan nan nan nan nan nan nan nan nan nan nan nan nan nan nan nan nan 25
26 26 25 29 30 26 25 25 25 26 26 25 23 25 26 28 29 28 29 27 27 29 nan nan nan nan nan nan nan nan nan nan nan nan nan nan nan nan nan nan nan nan nan nan nan nan nan nan nan nan nan nan nan nan nan nan nan nan nan nan nan nan nan nan nan nan nan nan nan nan nan nan nan nan nan nan nan nan nan nan nan nan nan 24 27
29 28 28 29 29 29 29 28 29 29 28 27 26 27 28 27 28 30 30 29 29 nan nan nan nan nan nan nan nan nan nan nan nan nan nan nan nan nan nan nan nan nan nan nan nan nan nan nan nan nan nan nan nan nan nan nan nan nan nan nan nan nan nan nan nan nan nan nan nan nan nan nan nan nan nan nan nan nan nan nan nan nan nan nan nan
30 30 29 29 30 31 31 31 32 32 31 29 nan 28 28 28 28 30 30 30 nan nan nan nan nan nan nan nan nan nan nan nan nan nan nan nan nan nan nan nan nan nan nan nan nan nan nan nan nan nan nan nan nan nan nan nan nan nan nan nan nan nan nan nan nan nan nan nan nan nan nan nan nan nan nan nan nan nan nan nan nan nan nan nan nan
30 30 30 30 30 30 33 35 34 33 32 31 29 28 29 30 29 28 31 nan nan nan nan nan nan nan nan nan nan nan nan nan nan nan nan nan nan nan nan nan nan nan nan nan nan nan nan nan nan nan nan nan nan nan nan nan nan nan nan nan nan nan nan nan nan nan nan nan nan nan nan nan nan 15 nan nan nan nan nan nan nan nan nan nan nan
31 30 29 30 32 35 35 35 36 34 33 31 30 30 30 30 30 29 nan nan nan nan nan nan nan nan nan nan nan nan nan nan nan nan nan nan nan nan nan nan nan nan nan nan nan nan nan nan nan nan nan nan nan nan nan nan nan nan nan nan nan nan nan nan nan nan nan nan nan nan nan nan nan nan nan nan nan nan nan nan nan nan nan nan nan
30 29 30 32 34 34 34 36 38 36 35 34 nan nan 31 30 30 nan nan nan nan nan nan nan nan nan nan nan nan nan nan nan nan nan nan nan nan nan nan nan nan nan nan nan nan nan nan nan nan nan nan nan nan nan nan nan nan nan nan nan nan nan nan nan nan nan nan nan nan nan nan nan nan nan nan nan nan nan nan nan nan nan nan nan nan
32 32 33 35 35 34 35 37 38 38 38 37 nan nan 33 32 nan nan nan nan nan nan nan nan nan nan nan nan nan nan nan nan nan nan nan nan nan nan nan nan nan nan nan nan nan nan nan nan nan nan nan nan nan nan nan nan nan nan nan nan nan nan nan nan nan nan nan nan nan nan nan nan nan nan nan nan nan nan nan nan nan nan nan nan nan
34 35 36 36 37 37 38 40 40 42 42 40 nan 36 34 nan nan nan nan nan nan nan nan nan nan nan nan nan nan nan nan nan nan nan nan nan nan nan nan nan nan nan nan nan nan nan nan nan nan nan nan nan nan nan nan nan nan nan nan nan nan nan nan nan nan nan nan nan nan nan nan nan nan nan nan nan nan nan nan nan nan nan nan nan nan
36 37 37 39 39 40 42 42 42 44 44 42 38 36 nan nan nan nan nan nan nan nan nan nan nan nan nan nan nan nan nan nan nan nan nan nan nan nan nan nan nan nan nan nan nan nan nan nan nan nan nan nan nan nan nan nan nan nan nan nan nan nan nan nan nan nan nan nan nan nan nan nan nan nan nan nan nan nan nan nan nan nan nan nan nan
37 38 40 42 42 43 43 43 43 42 42 41 39 nan nan nan nan nan nan nan nan nan nan nan nan nan nan nan nan nan nan nan nan nan nan nan nan nan nan nan nan nan nan nan nan nan nan nan nan nan nan nan nan nan nan nan nan nan nan nan nan nan nan nan nan nan nan nan nan nan nan nan nan nan nan nan nan nan nan nan nan nan nan nan nan
36 37 39 39 40 41 42 42 41 41 nan 40 nan nan nan nan nan nan nan nan nan nan nan nan nan nan nan nan nan nan nan nan nan nan nan nan nan nan nan nan nan nan nan nan nan nan nan nan nan nan nan nan nan nan nan nan nan nan nan nan nan nan nan nan nan nan nan nan nan nan nan nan nan nan nan nan nan nan nan nan nan nan nan nan nan
34 36 37 37 37 38 39 38 nan nan nan nan nan nan nan nan nan nan nan nan nan nan nan nan nan nan nan nan nan nan nan nan nan nan nan nan nan nan nan nan nan nan nan nan nan nan nan nan nan nan nan nan nan nan nan nan nan nan nan nan nan nan nan nan nan nan nan nan nan nan nan nan nan nan nan nan nan nan nan nan nan nan nan nan nan
35 36 35 36 37 39 41 nan nan nan nan nan nan nan nan nan nan nan nan nan nan nan nan nan nan nan nan nan nan nan nan nan nan nan nan nan nan nan nan nan nan nan nan nan nan nan nan nan nan nan nan nan nan nan nan nan nan nan nan nan nan nan nan nan nan nan nan nan nan nan nan nan nan nan nan nan nan nan nan nan nan nan nan nan nan
33 36 36 38 39 41 nan nan nan nan nan nan nan nan nan nan nan nan nan nan nan nan nan nan nan nan nan nan nan nan nan nan nan nan nan nan nan nan nan nan nan nan nan nan nan nan nan nan nan nan nan nan nan nan nan nan nan nan nan nan nan nan nan nan nan nan nan nan nan nan nan nan nan nan nan nan nan nan nan nan nan nan nan nan nan
34 37 39 39 41 43 nan nan nan nan nan nan nan nan nan nan nan nan nan nan nan nan nan nan nan nan nan nan nan nan nan nan nan nan nan nan nan nan nan nan nan nan nan nan nan nan nan nan nan nan nan nan nan nan nan nan nan nan nan nan nan nan nan nan nan nan nan nan nan nan nan nan nan nan nan nan nan nan nan nan nan nan nan nan nan
40 40 40 41 41 42 nan nan nan nan nan nan nan nan nan nan nan nan nan nan nan nan nan nan nan nan nan nan nan nan nan nan nan nan nan nan nan nan nan nan nan nan nan nan nan nan nan nan nan nan nan nan nan nan nan nan nan nan nan nan nan nan nan nan nan nan nan nan nan nan nan nan nan nan nan nan nan nan nan nan nan nan nan nan nan
43 45 44 42 nan nan nan 40 41 nan nan nan nan nan nan nan nan nan nan nan nan nan nan nan nan nan nan nan nan nan nan nan nan nan nan nan nan nan nan nan nan nan nan nan nan nan nan nan nan nan nan nan nan nan nan nan nan nan nan nan nan nan nan nan nan nan nan nan nan nan nan nan nan nan nan nan nan nan nan nan nan nan nan nan nan
44 42 nan nan nan nan nan 40 nan nan nan nan nan nan nan nan nan nan nan nan nan nan nan nan nan nan nan nan nan nan nan nan nan nan nan nan nan nan nan nan nan nan nan nan nan nan nan nan nan nan nan nan nan nan nan nan nan nan nan nan nan nan nan nan nan nan nan nan nan nan nan nan nan nan nan nan nan nan nan nan nan nan nan nan nan
44 40 nan nan nan nan nan nan nan nan nan nan nan nan nan nan nan nan nan nan nan nan nan nan nan nan nan nan nan nan nan nan nan nan nan nan nan nan nan nan nan nan nan nan nan nan nan nan nan nan nan nan nan nan nan nan nan nan nan nan nan nan nan nan nan nan nan nan nan nan nan nan nan nan nan nan nan nan nan nan nan nan nan nan nan
42 40 nan nan nan nan nan nan nan nan nan nan nan nan nan nan nan nan nan nan nan nan nan nan nan nan nan nan nan nan nan nan nan nan nan nan nan nan nan nan nan nan nan nan nan nan nan nan nan nan nan nan nan nan nan nan nan nan nan nan nan nan nan nan nan nan nan nan nan nan nan nan nan nan nan nan nan nan nan nan nan nan nan nan nan
nan nan nan nan nan nan nan nan nan nan nan nan nan nan nan nan nan nan nan nan nan nan nan nan nan nan nan nan nan nan nan nan nan nan nan nan nan nan nan nan nan nan nan nan nan nan nan nan nan nan nan nan nan nan nan nan nan nan nan nan nan nan nan nan nan nan nan nan nan nan nan nan nan nan nan nan nan nan nan nan nan nan nan nan nan
nan nan nan nan nan nan nan nan nan nan nan nan nan nan nan nan nan nan nan nan nan nan nan nan nan nan nan nan nan nan nan nan nan nan nan nan nan nan nan nan nan nan nan nan nan nan nan nan nan nan nan nan nan nan nan nan nan nan nan nan nan nan nan nan nan nan nan nan nan nan nan nan nan nan nan nan nan nan nan nan nan nan nan nan nan
nan nan nan nan nan nan nan nan nan nan nan nan nan nan nan nan nan nan nan nan nan nan nan nan nan nan nan nan nan nan nan nan nan nan nan nan nan nan nan nan nan nan nan nan nan nan nan nan nan nan nan nan nan nan nan nan nan nan nan nan nan nan nan nan nan nan nan nan nan nan nan nan nan nan nan nan nan nan nan nan nan nan nan nan nan
nan nan nan nan nan nan nan nan nan nan nan nan nan nan nan nan nan nan nan nan nan nan nan nan nan nan nan nan nan nan nan nan nan nan nan nan nan nan nan nan nan nan nan nan nan nan nan nan nan nan nan nan nan nan nan nan nan nan nan nan nan nan nan nan nan nan nan nan nan nan nan nan nan nan nan nan nan nan nan nan nan nan nan nan nan
nan nan nan nan nan nan nan nan nan nan nan nan nan nan nan nan nan nan nan nan nan nan nan nan nan nan nan nan nan nan nan nan nan nan nan nan nan nan nan nan nan nan nan nan nan nan nan nan nan nan nan nan nan nan nan nan nan nan nan nan nan nan nan nan nan nan nan nan nan nan nan nan nan nan nan nan nan nan nan nan nan nan nan nan nan
nan nan nan nan nan nan nan nan nan nan nan nan nan nan nan nan nan nan nan nan nan nan nan nan nan nan nan nan nan nan nan nan nan nan nan nan nan nan nan nan nan nan nan nan nan nan nan nan nan nan nan nan nan nan nan nan nan nan nan nan nan nan nan nan nan nan nan nan nan nan nan nan nan nan nan nan nan nan nan nan nan nan nan nan nan
nan nan nan nan nan nan nan nan nan nan nan nan nan nan nan nan nan nan nan nan nan nan nan nan nan nan nan nan nan nan nan nan nan nan nan nan nan nan nan nan nan nan nan nan nan nan nan nan nan nan nan nan nan nan nan nan nan nan nan nan nan nan nan nan nan nan nan nan nan nan nan nan nan nan nan nan nan nan nan nan nan nan nan nan nan
nan nan nan nan nan nan nan nan nan nan nan nan nan nan nan nan nan nan nan nan nan nan nan nan nan nan nan nan nan nan nan nan nan nan nan nan nan nan nan nan nan nan nan nan nan nan nan nan nan nan nan nan nan nan nan nan nan nan nan nan nan nan nan nan nan nan nan nan nan nan nan nan nan nan nan nan nan nan nan nan nan nan nan nan nan
nan nan nan nan nan nan nan nan nan nan nan nan nan nan nan nan nan nan nan nan nan nan nan nan nan nan nan nan nan nan nan nan nan nan nan nan nan nan nan nan nan nan nan nan nan nan nan nan nan nan nan nan nan nan nan nan nan nan nan nan nan nan nan nan nan nan nan nan nan nan nan nan nan nan nan nan nan nan nan nan nan nan nan nan nan
Wind_Direction
254 253 251 252 251 249 249 253 256 257 256 267 271 276 281 286 287 283 267 256 250 251 249 253 250 247 247 253 262 269 277 284 288 289 291 297 299 303 308 313 316 318 317 316 317 319 321 322 325 328 328 330 328 326 325 324 321 319 317 315 315 312 309 308 305 302 299 294 290 nan nan nan nan nan nan nan 283 278 276 279 273 266 261 nan 256
250 251 255 256 255 254 252 256 265 265 260 265 273 279 284 291 288 275 261 252 250 251 249 248 249 258 261 266 272 278 284 285 282 284 292 294 299 304 307 311 314 316 313 313 315 318 320 325 329 332 332 330 331 328 325 322 321 320 318 317 315 316 309 307 304 299 296 295 290 286 288 nan nan nan nan nan nan 278 280 280 278 268 260 nan 260
246 250 253 257 257 254 252 251 253 254 256 259 267 277 284 286 278 265 251 247 244 247 250 247 250 256 265 271 278 274 277 286 289 292 289 292 295 302 304 305 310 312 314 315 319 323 326 329 330 330 333 331 330 328 325 323 321 322 320 318 316 314 313 307 306 304 298 295 292 285 283 281 282 nan nan nan nan 280 280 nan nan 270 263 259 260
254 256 255 258 253 255 252 250 254 253 253 255 261 273 277 277 269 256 245 238 241 244 250 251 255 253 254 260 265 271 275 279 279 282 284 288 289 295 300 308 313 317 317 318 321 324 326 328 329 329 330 331 331 327 326 325 323 321 320 319 316 314 309 306 305 304 300 289 285 289 283 282 278 nan nan nan nan nan nan nan nan 274 267 262 260
240 247 258 263 257 251 249 249 247 250 250 256 267 272 276 278 266 246 240 244 239 242 244 247 250 252 256 260 263 271 277 272 279 282 284 289 290 288 293 304 307 310 312 317 320 323 326 328 329 330 330 330 329 328 325 323 321 321 320 318 316 313 309 304 301 301 301 297 291 282 278 279 279 nan nan nan nan nan nan 287 nan 280 273 268 261
226 247 277 267 258 246 243 240 239 244 248 250 261 267 262 257 245 234 232 237 249 251 253 252 256 265 269 273 273 274 276 274 272 280 279 280 283 295 290 293 297 nan nan nan nan nan nan nan nan nan nan 327 328 328 326 324 323 320 318 317 317 315 310 306 300 298 297 297 297 292 287 281 271 268 nan nan nan nan 272 282 286 nan 279 270 260
230 254 285 272 259 249 239 234 235 241 243 245 248 246 238 238 244 244 239 243 249 251 250 257 259 266 274 277 280 280 282 285 288 288 282 281 287 283 289 nan nan nan nan nan nan nan nan nan nan nan nan nan 329 331 329 327 325 323 321 321 319 315 314 312 305 297 291 288 289 290 288 284 280 274 nan nan nan nan nan 277 281 286 nan 273 260
241 278 287 263 256 248 244 237 236 234 235 238 239 239 238 241 248 247 242 242 243 249 246 251 267 272 272 273 276 279 284 284 281 282 287 289 281 281 288 nan nan nan nan nan nan nan nan nan nan nan nan nan nan 329 329 328 327 326 325 324 321 318 315 313 310 301 293 280 280 279 279 280 280 278 nan nan nan nan nan 268 269 281 nan nan 262
252 301 298 291 289 287 270 253 243 238 235 237 243 245 243 246 249 247 243 243 244 245 247 252 262 265 268 273 274 277 282 283 289 291 286 284 282 281 nan nan nan nan nan nan nan nan nan nan nan nan nan nan nan nan 328 331 333 332 331 328 324 322 320 315 308 301 293 284 272 271 274 272 271 274 275 nan nan nan nan nan nan 276 290 286 264
236 272 295 305 302 291 275 261 249 242 239 241 243 250 250 249 249 247 242 243 246 245 250 256 260 263 265 268 272 273 277 282 286 285 285 287 284 nan nan nan nan nan nan nan nan nan nan nan nan nan nan nan nan nan nan 333 334 335 336 334 331 329 326 323 314 303 293 281 269 254 258 266 262 264 272 273 270 nan nan 269 274 278 nan 293 274
235 281 297 293 286 278 267 268 266 256 250 246 246 251 254 252 250 245 242 246 249 252 258 262 263 264 269 271 275 276 279 283 284 283 283 281 nan nan nan nan nan nan nan nan nan nan nan nan nan nan nan nan nan nan nan 336 337 339 340 338 334 332 330 328 319 313 301 286 270 251 241 250 262 271 275 275 274 270 268 265 267 277 nan nan nan
260 274 286 285 284 278 272 274 275 268 261 255 249 249 252 254 254 251 246 253 258 262 264 264 265 266 269 273 276 280 284 nan 285 284 283 nan nan nan nan nan nan nan nan nan nan nan nan nan nan nan nan nan nan nan nan 337 338 340 340 336 330 329 330 329 323 319 312 294 272 251 241 239 241 250 252 262 270 269 269 267 272 270 nan nan nan
256 260 274 283 289 287 279 272 274 274 266 259 254 248 246 248 253 258 255 258 264 267 268 269 269 269 272 275 279 284 285 nan nan nan nan nan 277 nan nan nan nan nan nan nan nan nan nan nan nan nan nan nan nan nan 333 337 339 342 342 338 nan nan 332 334 329 324 321 304 276 255 248 246 244 254 261 261 264 264 269 268 271 273 276 278 nan
244 261 276 284 284 279 275 271 267 266 262 260 257 251 248 249 248 254 259 264 271 271 271 270 270 274 277 280 283 285 286 nan nan nan nan nan nan nan nan nan nan nan nan nan nan nan nan nan nan nan nan nan nan nan nan 335 339 342 345 344 338 331 331 337 336 333 328 318 301 277 263 259 254 256 261 266 270 266 264 270 269 270 278 280 272
247 254 271 277 276 274 272 265 260 260 262 261 260 257 252 251 252 255 260 264 267 267 269 270 274 276 279 283 284 286 nan nan nan nan nan nan nan nan nan nan nan nan nan nan nan nan nan nan nan nan nan nan nan nan nan nan nan nan 345 nan 342 335 332 338 341 337 326 316 307 292 270 265 263 264 268 273 nan nan nan nan nan 275 277 286 nan
252 258 266 268 269 267 266 263 258 256 254 257 259 254 251 250 254 259 264 266 266 266 268 273 277 280 279 280 281 nan nan nan nan nan nan nan nan nan nan nan nan nan nan nan nan nan nan nan nan nan nan nan nan nan nan nan nan nan nan nan nan 333 328 331 335 331 322 318 309 290 282 270 267 268 274 279 277 nan nan nan nan nan 283 286 277
256 257 265 269 269 267 263 256 256 258 253 252 252 250 247 249 255 261 264 265 266 269 273 277 279 277 277 278 nan nan nan nan nan nan nan nan nan nan nan nan nan nan nan nan nan nan nan nan nan nan nan nan nan nan nan nan nan nan nan nan nan nan nan nan 335 333 324 316 298 297 294 280 276 276 278 279 278 nan nan nan nan nan nan nan nan
249 250 264 274 275 277 270 261 257 259 259 257 260 257 254 255 261 264 265 267 269 271 273 275 274 274 274 276 nan nan nan nan nan nan nan nan nan nan nan nan nan nan nan nan nan nan nan nan nan nan nan nan nan nan nan nan nan nan nan nan nan nan nan nan nan 333 327 315 299 276 285 289 283 282 278 nan 280 nan nan nan nan nan nan nan nan
257 256 258 270 277 280 281 279 267 260 262 262 259 261 260 257 258 262 265 267 270 271 271 270 270 274 277 nan nan nan nan nan nan nan nan nan nan nan nan nan nan nan nan nan nan nan nan nan nan nan nan nan nan nan nan nan nan nan nan nan 348 349 nan nan nan nan nan nan nan 279 284 286 288 nan nan nan nan nan nan nan nan 297 nan nan nan
266 265 263 268 276 274 271 274 277 275 271 266 260 258 257 258 261 264 263 263 263 261 265 268 270 274 nan nan nan nan nan nan nan nan nan nan nan nan nan nan nan nan nan nan nan nan nan nan nan nan nan nan nan nan nan nan nan nan nan nan nan nan nan nan nan nan nan nan nan nan 279 nan nan nan nan nan nan nan nan nan nan nan nan nan nan
267 269 271 274 276 270 270 275 273 270 270 267 262 259 261 262 262 260 262 263 262 263 266 270 nan nan nan nan nan nan nan nan nan nan nan nan nan nan nan nan nan nan nan nan nan nan nan nan nan nan nan nan nan nan nan nan nan nan nan nan nan nan nan nan nan nan nan nan nan nan nan nan nan nan nan nan nan nan nan nan nan nan nan nan 288
269 266 270 272 268 268 272 275 278 281 277 271 265 266 263 262 263 264 264 262 266 265 268 nan nan nan nan nan nan nan nan nan nan nan nan nan nan nan nan nan nan nan nan nan nan nan nan nan nan nan nan nan nan nan nan nan nan nan nan nan nan nan nan nan nan nan nan nan nan nan nan nan nan nan nan nan nan nan nan nan nan nan nan nan 285
267 264 258 262 266 266 269 274 278 278 275 273 272 268 266 266 265 266 268 265 265 268 nan nan nan nan nan nan nan nan nan nan nan nan nan nan nan nan nan nan nan nan nan nan nan nan nan nan nan nan nan nan nan nan nan nan nan nan nan nan nan nan nan nan nan nan nan nan nan nan nan nan nan nan nan nan nan nan nan nan nan nan nan 284 284
265 258 254 255 260 265 267 270 271 269 270 273 273 271 269 267 269 270 269 268 266 nan nan nan nan nan nan nan nan nan nan nan nan nan nan nan nan nan nan nan nan nan nan nan nan nan nan nan nan nan nan nan nan nan nan nan nan nan nan nan nan nan nan nan nan nan nan nan nan nan nan nan nan nan nan nan nan nan nan nan nan nan nan nan nan
264 265 262 256 255 260 263 266 266 265 266 268 nan 272 271 269 268 269 269 269 nan nan nan nan nan nan nan nan nan nan nan nan nan nan nan nan nan nan nan nan nan nan nan nan nan nan nan nan nan nan nan nan nan nan nan nan nan nan nan nan nan nan nan nan nan nan nan nan nan nan nan nan nan nan nan nan nan nan nan nan nan nan nan nan nan
264 263 260 259 257 257 260 261 260 261 265 268 269 270 269 268 266 268 269 nan nan nan nan nan nan nan nan nan nan nan nan nan nan nan nan nan nan nan nan nan nan nan nan nan nan nan nan nan nan nan nan nan nan nan nan nan nan nan nan nan nan nan nan nan nan nan nan nan nan nan nan nan nan 277 nan nan nan nan nan nan nan nan nan nan nan
267 267 263 259 257 258 260 262 261 264 269 271 273 273 271 271 268 266 nan nan nan nan nan nan nan nan nan nan nan nan nan nan nan nan nan nan nan nan nan nan nan nan nan nan nan nan nan nan nan nan nan nan nan nan nan nan nan nan nan nan nan nan nan nan nan nan nan nan nan nan nan nan nan nan nan nan nan nan nan nan nan nan nan nan nan
269 268 266 264 261 260 263 264 266 270 273 272 nan nan 274 271 268 nan nan nan nan nan nan nan nan nan nan nan nan nan nan nan nan nan nan nan nan nan nan nan nan nan nan nan nan nan nan nan nan nan nan nan nan nan nan nan nan nan nan nan nan nan nan nan nan nan nan nan nan nan nan nan nan nan nan nan nan nan nan nan nan nan nan nan nan
268 267 264 265 266 265 266 266 269 275 274 275 nan nan 271 265 nan nan nan nan nan nan nan nan nan nan nan nan nan nan nan nan nan nan nan nan nan nan nan nan nan nan nan nan nan nan nan nan nan nan nan nan nan nan nan nan nan nan nan nan nan nan nan nan nan nan nan nan nan nan nan nan nan nan nan nan nan nan nan nan nan nan nan nan nan
269 269 268 268 269 269 268 269 272 275 274 274 nan 271 267 nan nan nan nan nan nan nan nan nan nan nan nan nan nan nan nan nan nan nan nan nan nan nan nan nan nan nan nan nan nan nan nan nan nan nan nan nan nan nan nan nan nan nan nan nan nan nan nan nan nan nan nan nan nan nan nan nan nan nan nan nan nan nan nan nan nan nan nan nan nan
272 274 276 271 270 269 270 271 272 272 272 269 267 265 nan nan nan nan nan nan nan nan nan nan nan nan nan nan nan nan nan nan nan nan nan nan nan nan nan nan nan nan nan nan nan nan nan nan nan nan nan nan nan nan nan nan nan nan nan nan nan nan nan nan nan nan nan nan nan nan nan nan nan nan nan nan nan nan nan nan nan nan nan nan nan
274 275 274 275 275 274 274 273 271 268 265 263 261 nan nan nan nan nan nan nan nan nan nan nan nan nan nan nan nan nan nan nan nan nan nan nan nan nan nan nan nan nan nan nan nan nan nan nan nan nan nan nan nan nan nan nan nan nan nan nan nan nan nan nan nan nan nan nan nan nan nan nan nan nan nan nan nan nan nan nan nan nan nan nan nan
276 277 277 278 278 278 278 274 271 270 nan 264 nan nan nan nan nan nan nan nan nan nan nan nan nan nan nan nan nan nan nan nan nan nan nan nan nan nan nan nan nan nan nan nan nan nan nan nan nan nan nan nan nan nan nan nan nan nan nan nan nan nan nan nan nan nan nan nan nan nan nan nan nan nan nan nan nan nan nan nan nan nan nan nan nan
273 273 276 276 274 274 274 274 nan nan nan nan nan nan nan nan nan nan nan nan nan nan nan nan nan nan nan nan nan nan nan nan nan nan nan nan nan nan nan nan nan nan nan nan nan nan nan nan nan nan nan nan nan nan nan nan nan nan nan nan nan nan nan nan nan nan nan nan nan nan nan nan nan nan nan nan nan nan nan nan nan nan nan nan nan
268 270 273 274 274 272 271 nan nan nan nan nan nan nan nan nan nan nan nan nan nan nan nan nan nan nan nan nan nan nan nan nan nan nan nan nan nan nan nan nan nan nan nan nan nan nan nan nan nan nan nan nan nan nan nan nan nan nan nan nan nan nan nan nan nan nan nan nan nan nan nan nan nan nan nan nan nan nan nan nan nan nan nan nan nan
274 276 277 276 276 277 nan nan nan nan nan nan nan nan nan nan nan nan nan nan nan nan nan nan nan nan nan nan nan nan nan nan nan nan nan nan nan nan nan nan nan nan nan nan nan nan nan nan nan nan nan nan nan nan nan nan nan nan nan nan nan nan nan nan nan nan nan nan nan nan nan nan nan nan nan nan nan nan nan nan nan nan nan nan nan
272 276 279 278 277 277 nan nan nan nan nan nan nan nan nan nan nan nan nan nan nan nan nan nan nan nan nan nan nan nan nan nan nan nan nan nan nan nan nan nan nan nan nan nan nan nan nan nan nan nan nan nan nan nan nan nan nan nan nan nan nan nan nan nan nan nan nan nan nan nan nan nan nan nan nan nan nan nan nan nan nan nan nan nan nan
270 269 271 273 272 273 nan nan nan nan nan nan nan nan nan nan nan nan nan nan nan nan nan nan nan nan nan nan nan nan nan nan nan nan nan nan nan nan nan nan nan nan nan nan nan nan nan nan nan nan nan nan nan nan nan nan nan nan nan nan nan nan nan nan nan nan nan nan nan nan nan nan nan nan nan nan nan nan nan nan nan nan nan nan nan
277 281 279 276 nan nan nan 272 271 nan nan nan nan nan nan nan nan nan nan nan nan nan nan nan nan nan nan nan nan nan nan nan nan nan nan nan nan nan nan nan nan nan nan nan nan nan nan nan nan nan nan nan nan nan nan nan nan nan nan nan nan nan nan nan nan nan nan nan nan nan nan nan nan nan nan nan nan nan nan nan nan nan nan nan nan
274 275 nan nan nan nan nan 273 nan nan nan nan nan nan nan nan nan nan nan nan nan nan nan nan nan nan nan nan nan nan nan nan nan nan nan nan nan nan nan nan nan nan nan nan nan nan nan nan nan nan nan nan nan nan nan nan nan nan nan nan nan nan nan nan nan nan nan nan nan nan nan nan nan nan nan nan nan nan nan nan nan nan nan nan nan
281 279 nan nan nan nan nan nan nan nan nan nan nan nan nan nan nan nan nan nan nan nan nan nan nan nan nan nan nan nan nan nan nan nan nan nan nan nan nan nan nan nan nan nan nan nan nan nan nan nan nan nan nan nan nan nan nan nan nan nan nan nan nan nan nan nan nan nan nan nan nan nan nan nan nan nan nan nan nan nan nan nan nan nan nan
277 279 nan nan nan nan nan nan nan nan nan nan nan nan nan nan nan nan nan nan nan nan nan nan nan nan nan nan nan nan nan nan nan nan nan nan nan nan nan nan nan nan nan nan nan nan nan nan nan nan nan nan nan nan nan nan nan nan nan nan nan nan nan nan nan nan nan nan nan nan nan nan nan nan nan nan nan nan nan nan nan nan nan nan nan
nan nan nan nan nan nan nan nan nan nan nan nan nan nan nan nan nan nan nan nan nan nan nan nan nan nan nan nan nan nan nan nan nan nan nan nan nan nan nan nan nan nan nan nan nan nan nan nan nan nan nan nan nan nan nan nan nan nan nan nan nan nan nan nan nan nan nan nan nan nan nan nan nan nan nan nan nan nan nan nan nan nan nan nan nan
nan nan nan nan nan nan nan nan nan nan nan nan nan nan nan nan nan nan nan nan nan nan nan nan nan nan nan nan nan nan nan nan nan nan nan nan nan nan nan nan nan nan nan nan nan nan nan nan nan nan nan nan nan nan nan nan nan nan nan nan nan nan nan nan nan nan nan nan nan nan nan nan nan nan nan nan nan nan nan nan nan nan nan nan nan
nan nan nan nan nan nan nan nan nan nan nan nan nan nan nan nan nan nan nan nan nan nan nan nan nan nan nan nan nan nan nan nan nan nan nan nan nan nan nan nan nan nan nan nan nan nan nan nan nan nan nan nan nan nan nan nan nan nan nan nan nan nan nan nan nan nan nan nan nan nan nan nan nan nan nan nan nan nan nan nan nan nan nan nan nan
nan nan nan nan nan nan nan nan nan nan nan nan nan nan nan nan nan nan nan nan nan nan nan nan nan nan nan nan nan nan nan nan nan nan nan nan nan nan nan nan nan nan nan nan nan nan nan nan nan nan nan nan nan nan nan nan nan nan nan nan nan nan nan nan nan nan nan nan nan nan nan nan nan nan nan nan nan nan nan nan nan nan nan nan nan
nan nan nan nan nan nan nan nan nan nan nan nan nan nan nan nan nan nan nan nan nan nan nan nan nan nan nan nan nan nan nan nan nan nan nan nan nan nan nan nan nan nan nan nan nan nan nan nan nan nan nan nan nan nan nan nan nan nan nan nan nan nan nan nan nan nan nan nan nan nan nan nan nan nan nan nan nan nan nan nan nan nan nan nan nan
nan nan nan nan nan nan nan nan nan nan nan nan nan nan nan nan nan nan nan nan nan nan nan nan nan nan nan nan nan nan nan nan nan nan nan nan nan nan nan nan nan nan nan nan nan nan nan nan nan nan nan nan nan nan nan nan nan nan nan nan nan nan nan nan nan nan nan nan nan nan nan nan nan nan nan nan nan nan nan nan nan nan nan nan nan
nan nan nan nan nan nan nan nan nan nan nan nan nan nan nan nan nan nan nan nan nan nan nan nan nan nan nan nan nan nan nan nan nan nan nan nan nan nan nan nan nan nan nan nan nan nan nan nan nan nan nan nan nan nan nan nan nan nan nan nan nan nan nan nan nan nan nan nan nan nan nan nan nan nan nan nan nan nan nan nan nan nan nan nan nan
nan nan nan nan nan nan nan nan nan nan nan nan nan nan nan nan nan nan nan nan nan nan nan nan nan nan nan nan nan nan nan nan nan nan nan nan nan nan nan nan nan nan nan nan nan nan nan nan nan nan nan nan nan nan nan nan nan nan nan nan nan nan nan nan nan nan nan nan nan nan nan nan nan nan nan nan nan nan nan nan nan nan nan nan nan
nan nan nan nan nan nan nan nan nan nan nan nan nan nan nan nan nan nan nan nan nan nan nan nan nan nan nan nan nan nan nan nan nan nan nan nan nan nan nan nan nan nan nan nan nan nan nan nan nan nan nan nan nan nan nan nan nan nan nan nan nan nan nan nan nan nan nan nan nan nan nan nan nan nan nan nan nan nan nan nan nan nan nan nan nan